Location: San Vito
(41.8833°N, 12.9833°E)
Time: 21:57:47
(UTC+00:00)

Abrixas rocket - Pass Details

Date: 17 November 2019
Orbit: 358 x 366 km, 48.4° (Epoch: 05 December)

Event Time Altitude Azimuth Distance (km) Brightness Sun altitude
Exits shadow 04:28:07 27° 209° (SSW) 728 3.3 -17.0°
Maximum altitude 04:29:25 50° 147° (SSE) 465 2.7 -16.8°
Drops below altitude 10° 04:32:20 10° 70° (ENE) 1,342 5.7 -16.2°
Sets 04:34:24 0° 65° (ENE) 2,193 6.8 -15.9°
